QPF
0.00 0.00 0.00 0.00 0.00 0.00 0.00 0.00 0.00 0.00 0.00 0.00 0.00 0.00 0.00 0.01 0.01 0.01 0.01 0.00 0.00 0.00 0.00 0.01 0.01 0.00 0.01 0.01 0.01 0.02 0.02 0.02 0.02 0.02 0.01 0.02 0.02 0.02 0.02 0.03 0.04 0.03 0.02 0.02
0.00 0.00 0.00 0.00 0.00 0.00 0.00 0.00 0.00 0.00 0.00 0.00 0.00 0.00 0.00 0.00 0.00 0.00 0.01 0.00 0.00 0.00 0.00 0.00 0.01 0.01 0.01 0.01 0.01 0.02 0.02 0.02 0.01 0.01 0.01 0.02 0.02 0.03 0.03 0.03 0.04 0.04 0.03 0.03
0.00 0.00 0.00 0.00 0.00 0.00 0.00 0.00 0.00 0.00 0.00 0.00 0.00 0.00 0.00 0.00 0.00 0.00 0.00 0.00 0.00 0.00 0.00 0.00 0.00 0.01 0.01 0.01 0.01 0.02 0.02 0.02 0.01 0.01 0.01 0.02 0.03 0.05 0.05 0.05 0.04 0.04 0.04 0.05
0.00 0.00 0.00 0.00 0.00 0.00 0.00 0.00 0.00 0.00 0.00 0.00 0.00 0.01 0.00 0.00 0.00 0.00 0.00 0.00 0.00 0.00 0.00 0.00 0.00 0.00 0.01 0.01 0.01 0.02 0.02 0.03 0.02 0.01 0.01 0.02 0.03 0.05 0.06 0.07 0.07 0.06 0.05 0.05
0.00 0.00 0.00 0.00 0.00 0.00 0.00 0.00 0.00 0.00 0.00 0.01 0.00 0.01 0.00 0.00 0.00 0.00 0.00 0.00 0.00 0.00 0.00 0.00 0.00 0.00 0.01 0.01 0.01 0.02 0.03 0.03 0.02 0.02 0.02 0.02 0.03 0.04 0.05 0.06 0.07 0.07 0.07 0.06
0.00 0.00 0.00 0.00 0.00 0.00 0.00 0.00 0.00 0.00 0.01 0.01 0.00 0.00 0.00 0.00 0.01 0.00 0.01 0.01 0.00 0.00 0.00 0.00 0.00 0.00 0.01 0.01 0.01 0.01 0.02 0.03 0.03 0.02 0.02 0.02 0.02 0.03 0.04 0.04 0.04 0.05 0.06 0.06
0.00 0.00 0.00 0.00 0.00 0.00 0.00 0.01 0.01 0.01 0.01 0.00 0.00 0.01 0.01 0.01 0.01 0.01 0.01 0.01 0.00 0.00 0.00 0.00 0.00 0.00 0.01 0.01 0.01 0.01 0.01 0.01 0.01 0.01 0.01 0.01 0.01 0.01 0.02 0.02 0.02 0.03 0.03 0.03
0.00 0.00 0.00 0.00 0.00 0.00 0.00 0.01 0.01 0.01 0.01 0.01 0.01 0.01 0.02 0.01 0.01 0.01 0.01 0.01 0.00 0.00 0.00 0.00 0.00 0.00 0.00 0.00 0.00 0.01 0.01 0.01 0.02 0.02 0.01 0.01 0.01 0.01 0.01 0.01 0.01 0.01 0.01 0.01
0.01 0.00 0.00 0.00 0.00 0.00 0.01 0.01 0.01 0.01 0.01 0.01 0.01 0.02 0.02 0.00 0.00 0.00 0.00 0.01 0.01 0.01 0.00 0.00 0.00 0.00 0.00 0.00 0.00 0.01 0.01 0.01 0.01 0.02 0.02 0.02 0.01 0.01 0.01 0.00 0.01 0.01 0.01 0.01
0.01 0.01 0.00 0.00 0.00 0.00 0.00 0.01 0.02 0.03 0.02 0.01 0.01 0.02 0.02 0.01 0.01 0.00 0.01 0.01 0.01 0.01 0.01 0.01 0.01 0.01 0.01 0.01 0.01 0.01 0.01 0.01 0.01 0.01 0.02 0.02 0.02 0.02 0.01 0.01 0.01 0.01 0.01 0.01
0.00 0.01 0.00 0.00 0.00 0.00 0.01 0.01 0.02 0.03 0.02 0.02 0.02 0.02 0.02 0.02 0.01 0.01 0.01 0.02 0.02 0.01 0.01 0.01 0.01 0.01 0.01 0.02 0.02 0.02 0.02 0.02 0.01 0.02 0.02 0.02 0.01 0.02 0.02 0.02 0.01 0.01 0.01 0.01
0.00 0.01 0.01 0.01 0.00 0.00 0.01 0.01 0.02 0.03 0.02 0.02 0.02 0.02 0.02 0.02 0.01 0.01 0.00 0.01 0.03 0.02 0.01 0.01 0.01 0.01 0.02 0.03 0.03 0.03 0.02 0.02 0.02 0.02 0.02 0.02 0.02 0.02 0.02 0.02 0.02 0.02 0.02 0.02
0.00 0.01 0.01 0.01 0.01 0.01 0.01 0.01 0.01 0.02 0.02 0.02 0.02 0.01 0.01 0.01 0.01 0.01 0.00 0.01 0.02 0.02 0.01 0.01 0.01 0.01 0.02 0.02 0.02 0.02 0.01 0.02 0.02 0.02 0.02 0.02 0.03 0.02 0.02 0.02 0.03 0.03 0.03 0.03
0.00 0.01 0.00 0.00 0.01 0.01 0.01 0.01 0.01 0.03 0.03 0.01 0.01 0.01 0.00 0.00 0.01 0.01 0.00 0.00 0.01 0.01 0.01 0.01 0.01 0.01 0.01 0.02 0.01 0.01 0.01 0.01 0.01 0.01 0.02 0.02 0.03 0.03 0.03 0.02 0.02 0.03 0.03 0.04
0.01 0.01 0.00 0.00 0.00 0.00 0.00 0.00 0.00 0.01 0.01 0.01 0.00 0.00 0.00 0.00 0.00 0.00 0.00 0.00 0.00 0.00 0.01 0.01 0.01 0.00 0.00 0.01 0.01 0.01 0.01 0.00 0.00 0.01 0.01 0.01 0.02 0.02 0.03 0.03 0.03 0.02 0.03 0.03
0.02 0.02 0.01 0.00 0.00 0.00 0.00 0.00 0.00 0.00 0.00 0.00 0.00 0.00 0.00 0.00 0.00 0.00 0.00 0.00 0.00 0.00 0.00 0.00 0.00 0.00 0.00 0.00 0.00 0.00 0.00 0.00 0.00 0.00 0.01 0.01 0.01 0.01 0.01 0.02 0.02 0.02 0.03 0.03
0.02 0.02 0.02 0.01 0.00 0.01 0.01 0.00 0.00 0.01 0.01 0.01 0.00 0.00 0.00 0.00 0.00 0.00 0.00 0.00 0.00 0.00 0.00 0.00 0.00 0.00 0.00 0.00 0.00 0.00 0.00 0.00 0.00 0.00 0.00 0.00 0.01 0.01 0.01 0.01 0.01 0.02 0.02 0.02
0.01 0.02 0.02 0.02 0.01 0.01 0.00 0.00 0.00 0.01 0.01 0.01 0.01 0.01 0.01 0.00 0.00 0.00 0.00 0.01 0.01 0.00 0.00 0.01 0.01 0.01 0.00 0.00 0.00 0.00 0.00 0.00 0.00 0.00 0.00 0.00 0.01 0.01 0.01 0.01 0.01 0.01 0.02 0.02
0.01 0.01 0.03 0.03 0.02 0.01 0.00 0.00 0.00 0.00 0.01 0.01 0.01 0.01 0.01 0.00 0.00 0.00 0.00 0.00 0.00 0.00 0.00 0.00 0.01 0.01 0.01 0.01 0.01 0.01 0.01 0.01 0.01 0.01 0.01 0.01 0.01 0.01 0.01 0.02 0.02 0.02 0.02 0.02
0.01 0.01 0.04 0.05 0.04 0.02 0.01 0.00 0.01 0.01 0.01 0.01 0.01 0.01 0.01 0.01 0.01 0.00 0.00 0.00 0.00 0.00 0.00 0.00 0.00 0.01 0.01 0.01 0.01 0.01 0.01 0.01 0.01 0.01 0.01 0.02 0.02 0.02 0.02 0.02 0.02 0.02 0.02 0.02
0.01 0.02 0.03 0.03 0.03 0.02 0.01 0.01 0.01 0.01 0.02 0.01 0.00 0.00 0.00 0.01 0.01 0.00 0.00 0.00 0.00 0.00 0.00 0.00 0.00 0.01 0.01 0.01 0.01 0.01 0.01 0.01 0.01 0.01 0.01 0.02 0.02 0.02 0.02 0.02 0.02 0.02 0.02 0.02
0.01 0.01 0.02 0.02 0.03 0.02 0.01 0.00 0.01 0.02 0.01 0.01 0.01 0.00 0.00 0.00 0.00 0.00 0.00 0.00 0.01 0.01 0.01 0.01 0.01 0.00 0.00 0.00 0.00 0.00 0.01 0.01 0.01 0.01 0.01 0.01 0.02 0.02 0.02 0.02 0.02 0.01 0.01 0.01
0.01 0.02 0.02 0.02 0.02 0.02 0.01 0.01 0.02 0.01 0.01 0.01 0.01 0.01 0.00 0.00 0.00 0.00 0.00 0.01 0.01 0.01 0.01 0.01 0.01 0.01 0.01 0.01 0.00 0.00 0.00 0.00 0.00 0.00 0.01 0.01 0.01 0.01 0.01 0.01 0.01 0.01 0.01 0.01
0.01 0.01 0.01 0.01 0.02 0.02 0.02 0.02 0.02 0.02 0.01 0.01 0.01 0.01 0.00 0.00 0.00 0.01 0.01 0.01 0.01 0.01 0.01 0.01 0.00 0.00 0.00 0.00 0.00 0.00 0.00 0.00 0.00 0.00 0.00 0.00 0.00 0.01 0.01 0.01 0.01 0.01 0.01 0.01
0.01 0.01 0.01 0.02 0.02 0.02 0.01 0.01 0.01 0.01 0.01 0.01 0.01 0.01 0.01 0.01 0.01 0.01 0.01 0.01 0.01 0.01 0.00 0.00 0.00 0.00 0.00 0.00 0.00 0.00 0.00 0.00 0.00 0.00 0.00 0.00 0.00 0.00 0.00 0.00 0.00 0.01 0.01 0.01
0.02 0.02 0.02 0.02 0.02 0.01 0.01 0.01 0.01 0.01 0.01 0.01 0.01 0.01 0.01 0.01 0.01 0.01 0.01 0.01 0.01 0.00 0.00 0.00 0.00 0.00 0.00 0.00 0.00 0.00 0.00 0.00 0.00 0.00 0.00 0.00 0.00 0.00 0.00 0.00 0.00 0.01 0.01 0.01
MSLP
1023.01 1023.17 1023.23 1023.24 1023.21 1023.18 1023.19 1023.27 1023.45 1023.70 1024.01 1024.34 1024.65 1024.90 1025.05 1025.10 1025.04 1024.91 1024.74 1024.55 1024.40 1024.30 1024.28 1024.35 1024.48 1024.67 1024.87 1025.08 1025.26 1025.39 1025.48 1025.53 1025.55 1025.55 1025.54 1025.55 1025.57 1025.59 1025.62 1025.63 1025.64 1025.62 1025.60 1025.60
1023.64 1023.66 1023.58 1023.44 1023.28 1023.16 1023.13 1023.22 1023.44 1023.76 1024.15 1024.55 1024.91 1025.18 1025.33 1025.35 1025.27 1025.10 1024.90 1024.69 1024.53 1024.44 1024.42 1024.48 1024.60 1024.76 1024.92 1025.09 1025.23 1025.33 1025.41 1025.47 1025.51 1025.55 1025.58 1025.62 1025.64 1025.65 1025.63 1025.58 1025.50 1025.40 1025.30 1025.23
1024.19 1024.12 1023.94 1023.70 1023.47 1023.31 1023.27 1023.38 1023.62 1023.97 1024.38 1024.79 1025.13 1025.36 1025.47 1025.46 1025.35 1025.17 1024.98 1024.81 1024.70 1024.65 1024.68 1024.75 1024.87 1025.00 1025.12 1025.22 1025.31 1025.38 1025.44 1025.51 1025.58 1025.65 1025.72 1025.78 1025.81 1025.80 1025.73 1025.61 1025.44 1025.25 1025.05 1024.89
1024.60 1024.49 1024.27 1024.01 1023.78 1023.63 1023.62 1023.74 1024.00 1024.34 1024.70 1025.03 1025.28 1025.42 1025.43 1025.35 1025.20 1025.03 1024.88 1024.79 1024.77 1024.82 1024.92 1025.06 1025.19 1025.30 1025.37 1025.42 1025.44 1025.47 1025.51 1025.57 1025.66 1025.77 1025.88 1025.96 1025.99 1025.96 1025.85 1025.66 1025.41 1025.13 1024.86 1024.62
1024.81 1024.72 1024.53 1024.32 1024.15 1024.08 1024.12 1024.28 1024.53 1024.81 1025.08 1025.27 1025.35 1025.31 1025.18 1024.98 1024.78 1024.61 1024.53 1024.54 1024.65 1024.83 1025.05 1025.27 1025.44 1025.55 1025.59 1025.59 1025.56 1025.53 1025.54 1025.60 1025.70 1025.84 1025.97 1026.08 1026.12 1026.08 1025.94 1025.70 1025.40 1025.07 1024.74 1024.45
1024.80 1024.76 1024.67 1024.58 1024.54 1024.58 1024.71 1024.92 1025.15 1025.35 1025.47 1025.46 1025.32 1025.06 1024.73 1024.39 1024.10 1023.93 1023.91 1024.03 1024.29 1024.62 1024.98 1025.29 1025.53 1025.66 1025.70 1025.66 1025.59 1025.53 1025.51 1025.56 1025.68 1025.84 1026.00 1026.13 1026.19 1026.15 1026.00 1025.75 1025.43 1025.07 1024.72 1024.42
1024.57 1024.62 1024.66 1024.72 1024.85 1025.05 1025.31 1025.57 1025.79 1025.89 1025.84 1025.61 1025.21 1024.70 1024.14 1023.63 1023.24 1023.05 1023.07 1023.31 1023.70 1024.18 1024.68 1025.11 1025.42 1025.60 1025.65 1025.60 1025.52 1025.44 1025.42 1025.48 1025.61 1025.80 1025.99 1026.14 1026.22 1026.19 1026.05 1025.81 1025.51 1025.17 1024.84 1024.56
1024.14 1024.30 1024.49 1024.74 1025.06 1025.44 1025.82 1026.16 1026.36 1026.36 1026.14 1025.69 1025.04 1024.27 1023.49 1022.81 1022.32 1022.08 1022.13 1022.44 1022.95 1023.56 1024.18 1024.72 1025.12 1025.36 1025.45 1025.43 1025.36 1025.30 1025.30 1025.38 1025.55 1025.76 1025.99 1026.17 1026.27 1026.27 1026.15 1025.94 1025.67 1025.38 1025.10 1024.87
1023.57 1023.84 1024.19 1024.63 1025.14 1025.69 1026.20 1026.60 1026.79 1026.71 1026.35 1025.70 1024.83 1023.84 1022.86 1022.02 1021.43 1021.15 1021.20 1021.55 1022.13 1022.84 1023.55 1024.18 1024.67 1024.98 1025.13 1025.16 1025.15 1025.14 1025.19 1025.33 1025.54 1025.79 1026.05 1026.27 1026.39 1026.41 1026.32 1026.15 1025.92 1025.69 1025.48 1025.31
1022.96 1023.34 1023.83 1024.43 1025.10 1025.79 1026.41 1026.85 1027.04 1026.90 1026.42 1025.62 1024.59 1023.44 1022.31 1021.35 1020.67 1020.34 1020.37 1020.73 1021.34 1022.09 1022.86 1023.56 1024.11 1024.49 1024.72 1024.84 1024.92 1025.00 1025.13 1025.35 1025.62 1025.93 1026.22 1026.46 1026.60 1026.64 1026.57 1026.43 1026.25 1026.07 1025.92 1025.82
1022.43 1022.89 1023.48 1024.20 1024.98 1025.76 1026.44 1026.91 1027.07 1026.88 1026.31 1025.42 1024.29 1023.04 1021.82 1020.79 1020.05 1019.68 1019.68 1020.02 1020.62 1021.37 1022.16 1022.88 1023.49 1023.95 1024.27 1024.50 1024.69 1024.89 1025.13 1025.44 1025.79 1026.16 1026.49 1026.74 1026.90 1026.94 1026.88 1026.75 1026.60 1026.46 1026.36 1026.31
1022.07 1022.58 1023.24 1024.01 1024.84 1025.64 1026.31 1026.75 1026.87 1026.62 1026.00 1025.06 1023.88 1022.60 1021.35 1020.30 1019.54 1019.13 1019.10 1019.40 1019.96 1020.67 1021.45 1022.18 1022.83 1023.35 1023.78 1024.13 1024.45 1024.79 1025.16 1025.57 1026.01 1026.43 1026.79 1027.06 1027.21 1027.24 1027.18 1027.06 1026.92 1026.81 1026.75 1026.74
1021.96 1022.51 1023.17 1023.92 1024.71 1025.44 1026.03 1026.38 1026.42 1026.10 1025.43 1024.46 1023.28 1022.02 1020.80 1019.77 1019.02 1018.60 1018.54 1018.79 1019.30 1019.96 1020.70 1021.43 1022.11 1022.70 1023.23 1023.71 1024.17 1024.65 1025.15 1025.68 1026.19 1026.66 1027.05 1027.33 1027.47 1027.50 1027.43 1027.31 1027.19 1027.09 1027.06 1027.09
1022.16 1022.68 1023.28 1023.94 1024.59 1025.18 1025.60 1025.80 1025.70 1025.28 1024.56 1023.58 1022.43 1021.21 1020.06 1019.09 1018.38 1017.98 1017.90 1018.12 1018.57 1019.18 1019.88 1020.61 1021.31 1021.98 1022.61 1023.22 1023.82 1024.44 1025.07 1025.69 1026.27 1026.79 1027.20 1027.48 1027.63 1027.66 1027.59 1027.49 1027.38 1027.31 1027.30 1027.36
1022.62 1023.07 1023.55 1024.03 1024.47 1024.82 1025.01 1024.98 1024.70 1024.15 1023.36 1022.37 1021.26 1020.13 1019.07 1018.19 1017.54 1017.18 1017.11 1017.30 1017.71 1018.29 1018.96 1019.69 1020.43 1021.17 1021.91 1022.64 1023.38 1024.12 1024.85 1025.56 1026.20 1026.75 1027.19 1027.48 1027.64 1027.69 1027.65 1027.58 1027.51 1027.48 1027.52 1027.61
1023.25 1023.58 1023.87 1024.12 1024.28 1024.32 1024.21 1023.92 1023.42 1022.72 1021.85 1020.85 1019.79 1018.75 1017.80 1017.03 1016.48 1016.17 1016.13 1016.32 1016.72 1017.27 1017.94 1018.69 1019.48 1020.30 1021.14 1021.98 1022.84 1023.69 1024.51 1025.29 1025.97 1026.55 1027.01 1027.32 1027.51 1027.60 1027.62 1027.62 1027.62 1027.66 1027.75 1027.90
1023.92 1024.07 1024.13 1024.08 1023.92 1023.63 1023.19 1022.60 1021.88 1021.02 1020.08 1019.08 1018.08 1017.14 1016.32 1015.67 1015.23 1015.01 1015.01 1015.23 1015.63 1016.19 1016.87 1017.66 1018.51 1019.41 1020.34 1021.29 1022.25 1023.19 1024.08 1024.90 1025.62 1026.22 1026.70 1027.05 1027.29 1027.44 1027.55 1027.64 1027.74 1027.87 1028.04 1028.25
1024.45 1024.39 1024.18 1023.82 1023.31 1022.68 1021.92 1021.06 1020.12 1019.14 1018.14 1017.16 1016.25 1015.43 1014.75 1014.23 1013.91 1013.78 1013.85 1014.11 1014.54 1015.13 1015.84 1016.67 1017.58 1018.56 1019.58 1020.62 1021.65 1022.66 1023.59 1024.45 1025.19 1025.81 1026.32 1026.71 1027.02 1027.26 1027.47 1027.67 1027.89 1028.13 1028.39 1028.66
1024.66 1024.37 1023.88 1023.22 1022.40 1021.45 1020.42 1019.34 1018.25 1017.18 1016.17 1015.25 1014.44 1013.77 1013.24 1012.87 1012.68 1012.65 1012.79 1013.11 1013.57 1014.19 1014.94 1015.81 1016.78 1017.82 1018.91 1020.02 1021.11 1022.15 1023.12 1023.99 1024.75 1025.39 1025.92 1026.37 1026.75 1027.09 1027.41 1027.74 1028.08 1028.42 1028.77 1029.09
1024.43 1023.92 1023.18 1022.25 1021.16 1019.97 1018.74 1017.51 1016.34 1015.27 1014.31 1013.49 1012.82 1012.31 1011.94 1011.73 1011.66 1011.74 1011.95 1012.31 1012.81 1013.45 1014.23 1015.14 1016.14 1017.23 1018.36 1019.51 1020.64 1021.70 1022.68 1023.56 1024.33 1024.99 1025.55 1026.06 1026.51 1026.94 1027.37 1027.81 1028.25 1028.69 1029.10 1029.47
1023.70 1022.99 1022.05 1020.91 1019.64 1018.30 1016.96 1015.68 1014.52 1013.50 1012.66 1011.99 1011.49 1011.15 1010.95 1010.89 1010.94 1011.10 1011.38 1011.77 1012.29 1012.95 1013.74 1014.65 1015.67 1016.78 1017.93 1019.09 1020.23 1021.31 1022.29 1023.17 1023.94 1024.62 1025.23 1025.78 1026.30 1026.81 1027.33 1027.86 1028.38 1028.88 1029.34 1029.72
1022.49 1021.62 1020.53 1019.27 1017.91 1016.51 1015.17 1013.93 1012.86 1011.97 1011.29 1010.80 1010.49 1010.33 1010.30 1010.36 1010.51 1010.75 1011.07 1011.48 1012.00 1012.64 1013.42 1014.32 1015.33 1016.43 1017.57 1018.73 1019.86 1020.93 1021.91 1022.79 1023.58 1024.28 1024.92 1025.51 1026.10 1026.68 1027.26 1027.85 1028.42 1028.95 1029.43 1029.81
1020.86 1019.90 1018.73 1017.43 1016.06 1014.71 1013.44 1012.33 1011.41 1010.71 1010.22 1009.92 1009.79 1009.80 1009.91 1010.08 1010.31 1010.59 1010.92 1011.34 1011.84 1012.46 1013.20 1014.07 1015.05 1016.12 1017.24 1018.37 1019.48 1020.54 1021.51 1022.40 1023.20 1023.93 1024.60 1025.24 1025.88 1026.51 1027.14 1027.76 1028.35 1028.89 1029.36 1029.74
1018.95 1017.93 1016.75 1015.48 1014.19 1012.96 1011.85 1010.91 1010.19 1009.68 1009.39 1009.28 1009.31 1009.45 1009.66 1009.92 1010.19 1010.50 1010.83 1011.23 1011.71 1012.30 1013.00 1013.83 1014.77 1015.80 1016.88 1017.98 1019.07 1020.11 1021.07 1021.97 1022.79 1023.54 1024.26 1024.95 1025.62 1026.29 1026.95 1027.59 1028.19 1028.73 1029.18 1029.54
1016.86 1015.84 1014.71 1013.53 1012.38 1011.32 1010.40 1009.67 1009.15 1008.84 1008.72 1008.76 1008.91 1009.15 1009.43 1009.72 1010.02 1010.33 1010.67 1011.05 1011.51 1012.07 1012.75 1013.54 1014.45 1015.44 1016.48 1017.55 1018.61 1019.63 1020.59 1021.49 1022.33 1023.12 1023.88 1024.61 1025.33 1026.04 1026.72 1027.37 1027.97 1028.49 1028.93 1029.28
1014.73 1013.73 1012.68 1011.64 1010.67 1009.80 1009.10 1008.57 1008.24 1008.09 1008.10 1008.24 1008.47 1008.75 1009.06 1009.37 1009.68 1009.99 1010.33 1010.72 1011.18 1011.74 1012.41 1013.19 1014.08 1015.04 1016.06 1017.10 1018.13 1019.14 1020.09 1021.00 1021.86 1022.68 1023.48 1024.25 1025.01 1025.75 1026.46 1027.13 1027.73 1028.26 1028.69 1029.04
Thickness
5583 5577 5573 5576 5579 5583 5581 5579 5579 5583 5584 5583 5583 5587 5593 5594 5590 5590 5591 5591 5591 5593 5594 5593 5593 5592 5591 5589 5589 5589 5587 5585 5583 5580 5577 5574 5573 5571 5569 5568 5567 5565 5562 5560
5573 5570 5575 5575 5576 5576 5576 5574 5575 5577 5578 5577 5577 5583 5591 5593 5592 5593 5592 5592 5591 5590 5589 5589 5588 5587 5586 5585 5585 5585 5583 5582 5580 5578 5575 5572 5569 5567 5565 5563 5561 5559 5558 5555
5571 5569 5571 5570 5569 5571 5569 5570 5569 5567 5568 5572 5570 5580 5590 5594 5593 5593 5593 5592 5591 5590 5588 5586 5585 5584 5582 5582 5582 5582 5580 5579 5576 5574 5570 5567 5563 5560 5558 5557 5556 5555 5553 5551
5557 5561 5564 5564 5563 5567 5566 5565 5564 5562 5558 5557 5562 5562 5584 5586 5589 5592 5591 5589 5588 5589 5587 5585 5583 5582 5580 5580 5579 5577 5576 5574 5572 5569 5566 5563 5561 5558 5556 5554 5551 5549 5547 5545
5552 5553 5556 5558 5558 5559 5559 5559 5557 5556 5553 5551 5553 5552 5573 5581 5587 5592 5591 5589 5587 5587 5585 5583 5582 5581 5579 5577 5575 5574 5572 5570 5568 5565 5563 5560 5557 5555 5552 5548 5546 5543 5541 5539
5545 5547 5548 5550 5550 5552 5551 5551 5550 5542 5539 5546 5555 5550 5566 5574 5587 5591 5591 5588 5586 5584 5582 5580 5579 5576 5575 5572 5571 5569 5568 5566 5564 5561 5559 5556 5554 5550 5546 5543 5541 5539 5536 5533
5542 5542 5542 5543 5545 5546 5545 5542 5533 5533 5525 5539 5550 5551 5565 5584 5586 5588 5589 5586 5582 5580 5577 5574 5572 5571 5570 5568 5566 5565 5564 5563 5560 5558 5555 5553 5550 5547 5543 5540 5537 5534 5531 5528
5537 5539 5537 5536 5540 5539 5539 5541 5533 5532 5529 5536 5543 5548 5573 5584 5584 5585 5584 5582 5578 5575 5572 5571 5569 5567 5566 5564 5562 5561 5560 5558 5556 5554 5552 5549 5546 5543 5540 5536 5533 5530 5527 5524
5535 5536 5529 5529 5530 5534 5536 5530 5534 5522 5511 5518 5538 5550 5569 5581 5581 5579 5577 5574 5571 5570 5569 5567 5565 5563 5561 5560 5558 5557 5555 5553 5550 5549 5547 5544 5542 5538 5535 5532 5529 5526 5523 5520
5531 5527 5523 5521 5523 5525 5527 5525 5517 5516 5519 5524 5542 5552 5564 5576 5574 5572 5569 5567 5566 5565 5564 5563 5561 5559 5557 5556 5554 5552 5550 5549 5546 5544 5542 5539 5536 5533 5530 5527 5523 5521 5518 5515
5522 5519 5513 5512 5514 5521 5519 5519 5518 5512 5512 5520 5530 5554 5571 5573 5571 5566 5564 5563 5561 5559 5559 5557 5557 5555 5552 5550 5548 5547 5545 5542 5540 5538 5535 5533 5530 5527 5524 5521 5518 5515 5512 5509
5512 5506 5505 5509 5508 5508 5514 5518 5513 5517 5511 5511 5523 5546 5570 5567 5564 5561 5559 5556 5554 5552 5551 5549 5548 5547 5544 5543 5541 5540 5538 5536 5534 5532 5529 5527 5524 5520 5517 5514 5511 5508 5505 5502
5505 5500 5498 5507 5504 5497 5501 5507 5508 5505 5501 5497 5508 5542 5561 5558 5556 5552 5550 5547 5545 5543 5541 5540 5539 5538 5536 5535 5534 5532 5531 5529 5527 5525 5522 5519 5517 5514 5511 5507 5504 5501 5498 5494
5501 5490 5496 5508 5514 5503 5496 5498 5498 5498 5494 5495 5511 5534 5549 5548 5544 5541 5539 5537 5535 5534 5533 5531 5530 5529 5528 5527 5525 5524 5522 5521 5518 5516 5514 5511 5509 5507 5503 5500 5496 5493 5489 5486
5487 5481 5482 5490 5494 5493 5494 5496 5492 5494 5501 5505 5521 5522 5539 5538 5533 5533 5531 5529 5527 5526 5524 5523 5521 5520 5518 5517 5516 5515 5514 5512 5509 5507 5504 5503 5500 5498 5494 5491 5488 5484 5481 5478
5470 5471 5469 5474 5482 5481 5484 5492 5489 5491 5495 5500 5507 5517 5530 5528 5524 5522 5521 5520 5519 5519 5517 5515 5513 5511 5510 5509 5507 5506 5505 5502 5500 5498 5496 5493 5490 5487 5484 5482 5478 5475 5472 5468
5458 5457 5459 5463 5462 5466 5475 5499 5494 5490 5490 5497 5504 5519 5523 5519 5516 5513 5512 5511 5511 5511 5509 5506 5505 5503 5501 5499 5498 5496 5494 5492 5490 5488 5485 5483 5480 5478 5475 5472 5468 5465 5462 5459
5450 5448 5443 5442 5449 5468 5507 5506 5498 5492 5491 5492 5499 5506 5507 5506 5504 5502 5501 5501 5501 5500 5499 5497 5495 5493 5491 5489 5487 5485 5482 5480 5478 5476 5474 5472 5469 5467 5464 5460 5458 5455 5452 5448
5446 5442 5430 5428 5439 5456 5487 5491 5483 5482 5486 5490 5491 5496 5495 5493 5495 5496 5494 5492 5492 5490 5488 5486 5484 5483 5480 5478 5476 5473 5471 5468 5466 5464 5463 5461 5459 5457 5454 5451 5448 5444 5441 5438
5430 5431 5425 5420 5437 5453 5491 5487 5479 5480 5478 5486 5482 5485 5483 5482 5485 5490 5487 5482 5479 5477 5475 5474 5472 5470 5468 5466 5463 5462 5460 5457 5456 5455 5453 5450 5448 5446 5444 5441 5438 5434 5431 5428
5410 5411 5413 5412 5420 5444 5467 5466 5470 5471 5477 5476 5470 5470 5468 5467 5473 5473 5472 5469 5467 5465 5463 5461 5459 5458 5457 5454 5452 5450 5448 5447 5446 5444 5442 5440 5438 5436 5433 5430 5427 5423 5420 5417
5411 5403 5399 5400 5411 5443 5455 5448 5456 5462 5461 5460 5457 5455 5453 5452 5455 5455 5455 5455 5453 5451 5449 5448 5446 5445 5443 5441 5440 5439 5438 5437 5434 5432 5431 5429 5426 5424 5421 5418 5414 5410 5407 5404
5413 5421 5417 5422 5441 5446 5438 5441 5442 5441 5441 5442 5442 5441 5439 5438 5439 5441 5441 5439 5438 5437 5435 5433 5432 5431 5429 5427 5426 5426 5426 5423 5421 5420 5419 5417 5414 5411 5409 5406 5402 5398 5394 5391
5403 5403 5407 5406 5421 5425 5422 5422 5422 5422 5423 5425 5425 5425 5424 5424 5426 5426 5425 5424 5423 5421 5420 5418 5416 5415 5414 5413 5412 5412 5411 5410 5408 5407 5406 5404 5401 5398 5395 5392 5389 5386 5383 5380
5396 5387 5391 5397 5408 5407 5411 5410 5411 5410 5408 5407 5407 5408 5408 5409 5410 5411 5410 5408 5407 5406 5404 5402 5401 5401 5401 5399 5398 5397 5396 5395 5395 5394 5393 5390 5388 5385 5382 5379 5377 5375 5373 5370
5382 5381 5388 5405 5405 5402 5406 5404 5400 5395 5395 5394 5394 5394 5393 5392 5393 5394 5393 5392 5390 5389 5388 5386 5386 5386 5386 5385 5384 5384 5382 5381 5381 5380 5379 5376 5374 5372 5369 5366 5363 5362 5361 5359